OBJECT G, 100786

Orbit data source: Space-Track

You're viewing an uncataloged RSO

Recently launched and/or uncataloged RSOs may have evolving metadata. Metadata may include the following, but is not limited to: Owner, Manufacturer, Bus, Motor, and Mission.

OBJECT G, 100786 is a Chinese satellite in SSO that was launched on Mon, 21 Sep 2026 UTC launched from the Jiuquan Satellite Launch Center, China (JSC). Unknown objects in Earth's orbit typically refer to objects detected orbiting the Earth but have not yet been identified or cataloged. These objects could be anything from previously untracked satellites, spent rocket stages, debris from satellite collisions, or even natural meteoroids temporarily captured by Earth's gravity.

Loading next visibility...
Identifier
100786, 2026-220G
Orbit
SSO
Country
Flag of CNCN / PRC
Related business
None
Manufacturer
Unknown
Mission
Operational spacecraft
Bus & Motor
Unknown
Mass
Unknown
Launch date (UTC)
Icon of a cake. It is the launch day of the satellite!2026-09-21 (11 hours ago)
Launch vehicle
Unknown
Launch site
Jiuquan Satellite Launch Center, China (JSC)
Object type
Unknown
Shape & HBR
Unknown
Radar Cross Section
RCS unknown

Expand to show TLE details & history
Last TLE update: 1 day ago

TLE from 1 day ago
0 OBJECT G
1 A0786U 26220G   26263.67624036  .00000478  00000-0  32412-4 0  9991
2 A0786  97.5457 337.1411 0013953 283.8520  76.1158 15.11063916    88
Epoch: 2026-09-20T16:13Z
TLE epoch observation values (Epoch: 2026-09-20T16:13:47.167Z)
Latitude
0.00007°
Longitude
94.12756°
Altitude
533.726 km
Speed
7.597 km/s
True Right ascension
22h 28m 33s
True Declination
0° 00' 00"
Sunlit
Object was in full shadow at epoch
Visualization orbit readout
Latitude
Unknown
Longitude
Unknown
Altitude
Unknown
Speed
Unknown
Apparent Right ascension
Unknown
Apparent Declination
Unknown
Sunlit
N/A
Visualization observer readout
Local Sidereal Time
15:36:41
Azimuth
Unknown
Elevation
Unknown
Doppler factor
Unknown
Orbital elements
Apogee altitude
539.577 km
Perigee altitude
520.299 km
Semi-major axis
6,908.075 km
Eccentricity
0.0014
Inclination
97.5457°
RAAN
337.1411°
Arg. of periapsis
283.852°
True anomaly
76.27108°
Mean anomaly
76.1158°
Eccentric anomaly
76.19343°
Mean motion
3.78014 °/min
Orbital period
95.23 mins
BSTAR
0.000032412
Loading maneuver chart data...
Computing Atmospheric mass density...
Loading historical data...
Loading historical data...
Loading historical data...
Loading historical data...
Loading historical data...
Loading historical data...
Loading historical data...

Documentation

Showing up to 5 results
|